Airfield :
LOGIN :

Register | Disclaimer

   EN    FR    IT 

 










Legend :    VFR   Marginal VFR   IFR   Intensive IFR   Very Intensive IFR
Visi :
Ceiling :
>= 8 km
>= 3000ft
5 to 8 km
1000 to 3000 ft
1500m to 5 km
500 to 1000 ft
800 to 1500m
200 to 500 ft
< 800m
< 200 ft
Symbols :   Thunderstorms  Fog  Heavy snow  Heavy precipitations  Wind > 20 kt
SIGMETs :     Misc.  Thunderstorms  Icing  Turbulence  Mountain Waves  Volcanic Ashes






- Airport Elevation : 2026 ft
- IATA code : TOJ


LETO - Madrid Torrejon

CURRENT METAR :
  • 130400Z 25015G25KT 210V290 9999 FEW010 14/08 Q1012 NOSIG

EXPIRED METARs :
  • 130300Z 26016G26KT 9999 FEW010 13/09 Q1011 NOSIG

TAF TAF LETO
Valid from the 13 at 00:00 until the 14 at 00:00 UTC


122300Z 1300/1324 24015KT 9999 BKN015 BKN030 TX14/1315Z TN06/1324Z
PROB30
TEMPO 1300/1302 4500 RA BR BKN012
PROB40
TEMPO 1300/1320 26018G30KT
PROB40
TEMPO 1315/1318 26022G34KT
BECMG 1323/1324 24012KT



MET'MAP, your aeronautical weather chart ! - Copyright ORBIFLY December 2007 - Disclaimer

ORBIFLY MET'MAP TEAM :

Programming & Development : Alexandra Zaïnal
Concept & original design : Baudouin d'Aumeries
Assistance for programming : Marc-Olivier Méhu
Technical & hardware support : Manuel Goepfert

Contact : metmap@orbifly.com




SOURCES & CREDITS :

   NOAA